Location: Dortmund
(51.5019°N, 7.6520°E)
Time: 03:35:52
(UTC+02:00)

ISS - Visible Passes

Search period start: 21 September 2017 00:00
Search period end: 01 October 2017 00:00
Orbit: 402 x 407 km, 51.6° (Epoch: 21 September)

Date Brightness Start Highest point End Pass type
(mag) Time Alt. Az. Time Alt. Az. Time Alt. Az.
25 Sep -1.1 21:19:23 10° SSW 21:19:25 10° SSW 21:19:25 10° SSW visible
26 Sep -1.8 20:28:00 10° S 20:29:45 14° SE 20:29:45 14° SE visible
27 Sep -2.6 21:10:25 10° SW 21:12:33 30° S 21:12:33 30° S visible
28 Sep -2.5 20:18:28 10° SSW 20:21:12 25° SSE 20:22:31 19° ESE visible
28 Sep -1.4 21:54:05 10° WSW 21:55:11 19° WSW 21:55:11 19° WSW visible
29 Sep -3.8 21:01:46 10° WSW 21:04:59 58° SSE 21:05:00 58° SSE visible
30 Sep -3.2 20:09:32 10° SW 20:12:38 41° SSE 20:14:44 18° E visible
30 Sep -1.9 21:45:41 10° W 21:47:23 28° W 21:47:23 28° W visible
